TimeEDT,TemperatureF,Dew PointF,Humidity,Sea Level PressureIn,VisibilityMPH,Wind Direction,Wind SpeedMPH,Gust SpeedMPH,PrecipitationIn,Events,Conditions,WindDirDegrees,DateUTC
12:53 AM,73.0,66.9,81,29.75,9.0,South,10.4,-,N/A,,Clear,180,2013-08-31 04:53:00
1:53 AM,75.0,66.9,76,29.78,10.0,South,8.1,-,N/A,,Scattered Clouds,190,2013-08-31 05:53:00
2:45 AM,75.2,66.2,73,29.88,8.0,NE,23.0,26.5,0.01,Rain-Thunderstorm,Light Thunderstorms and Rain,40,2013-08-31 06:45:00
2:53 AM,73.0,64.9,76,29.83,4.0,East,12.7,27.6,0.06,Rain-Thunderstorm,Heavy Thunderstorms and Rain,80,2013-08-31 06:53:00
3:04 AM,69.8,64.4,83,29.85,10.0,ESE,13.8,18.4,0.01,Rain-Thunderstorm,Light Rain,110,2013-08-31 07:04:00
3:44 AM,66.2,64.4,94,29.80,10.0,SSE,10.4,-,0.10,,Partly Cloudy,160,2013-08-31 07:44:00
3:53 AM,66.9,64.0,90,29.77,10.0,SSE,10.4,-,0.10,,Partly Cloudy,160,2013-08-31 07:53:00
4:53 AM,64.9,63.0,93,29.76,10.0,SSW,3.5,-,N/A,,Clear,210,2013-08-31 08:53:00
5:53 AM,66.9,62.1,84,29.76,10.0,SW,10.4,-,N/A,,Clear,230,2013-08-31 09:53:00
6:53 AM,68.0,62.1,81,29.78,10.0,SW,8.1,-,N/A,,Partly Cloudy,220,2013-08-31 10:53:00
7:53 AM,70.0,63.0,78,29.80,10.0,WSW,4.6,-,N/A,,Partly Cloudy,240,2013-08-31 11:53:00
8:06 AM,69.8,64.4,83,29.82,9.0,SW,3.5,-,N/A,,Scattered Clouds,220,2013-08-31 12:06:00
8:53 AM,73.9,66.9,79,29.81,10.0,WSW,4.6,-,N/A,,Clear,240,2013-08-31 12:53:00
9:53 AM,77.0,71.1,82,29.82,9.0,West,9.2,-,N/A,,Overcast,280,2013-08-31 13:53:00
10:53 AM,77.0,72.0,84,29.83,5.0,NW,10.4,-,N/A,,Haze,310,2013-08-31 14:53:00
11:23 AM,77.0,71.6,83,29.85,5.0,WNW,8.1,-,N/A,,Haze,290,2013-08-31 15:23:00
11:53 AM,77.0,72.0,84,29.81,5.0,NW,5.8,-,N/A,,Haze,320,2013-08-31 15:53:00
12:23 PM,78.8,71.6,78,29.84,6.0,NNW,5.8,-,N/A,,Haze,330,2013-08-31 16:23:00
12:53 PM,80.1,72.0,76,29.81,7.0,Variable,4.6,-,N/A,,Mostly Cloudy,0,2013-08-31 16:53:00
1:16 PM,80.6,71.6,74,29.84,7.0,Variable,4.6,-,N/A,,Scattered Clouds,0,2013-08-31 17:16:00
1:53 PM,82.9,73.0,72,29.80,9.0,WNW,6.9,-,N/A,,Partly Cloudy,290,2013-08-31 17:53:00
2:39 PM,84.2,71.6,66,29.83,10.0,Variable,5.8,-,N/A,,Mostly Cloudy,0,2013-08-31 18:39:00
2:53 PM,84.0,71.1,65,29.79,10.0,NW,6.9,-,N/A,,Mostly Cloudy,320,2013-08-31 18:53:00
3:53 PM,84.0,71.1,65,29.79,10.0,WSW,9.2,-,N/A,,Overcast,250,2013-08-31 19:53:00
4:53 PM,82.9,71.1,67,29.77,10.0,West,9.2,-,N/A,,Overcast,260,2013-08-31 20:53:00
5:53 PM,82.9,72.0,69,29.77,10.0,NNW,3.5,-,N/A,,Overcast,340,2013-08-31 21:53:00
6:33 PM,80.6,69.8,70,29.79,10.0,NNW,4.6,-,N/A,Thunderstorm,Thunderstorm,340,2013-08-31 22:33:00
6:38 PM,78.8,71.6,78,29.80,1.5,WSW,10.4,17.3,0.13,Rain-Thunderstorm,Heavy Thunderstorms and Rain,250,2013-08-31 22:38:00
6:43 PM,75.2,71.6,89,29.80,0.2,Variable,6.9,17.3,0.46,Fog-Rain-Thunderstorm,Heavy Thunderstorms and Rain,0,2013-08-31 22:43:00
6:51 PM,73.4,69.8,88,29.79,0.5,SW,10.4,18.4,0.66,Fog-Rain-Thunderstorm,Heavy Thunderstorms and Rain,230,2013-08-31 22:51:00
6:53 PM,73.9,70.0,87,29.77,0.5,SW,10.4,18.4,0.66,Fog-Rain-Thunderstorm,Heavy Thunderstorms and Rain,230,2013-08-31 22:53:00
7:00 PM,73.4,69.8,88,29.80,2.5,West,8.1,-,0.03,Rain-Thunderstorm,Thunderstorms and Rain,260,2013-08-31 23:00:00
7:07 PM,73.4,71.6,94,29.79,3.0,WNW,3.5,-,0.03,Rain-Thunderstorm,Light Rain,300,2013-08-31 23:07:00
7:16 PM,75.2,71.6,89,29.80,9.0,NW,6.9,-,0.03,Rain,Light Rain,320,2013-08-31 23:16:00
7:53 PM,73.9,72.0,93,29.77,9.0,Calm,Calm,-,0.03,,Clear,0,2013-08-31 23:53:00
8:53 PM,73.9,71.1,91,29.78,10.0,ENE,4.6,-,N/A,,Scattered Clouds,70,2013-09-01 00:53:00
9:53 PM,71.1,69.1,93,29.81,10.0,Calm,Calm,-,N/A,,Mostly Cloudy,0,2013-09-01 01:53:00
10:48 PM,73.4,71.6,94,29.83,9.0,Calm,Calm,-,N/A,,Overcast,0,2013-09-01 02:48:00
10:53 PM,73.0,71.1,93,29.81,9.0,Calm,Calm,-,N/A,,Overcast,0,2013-09-01 02:53:00
11:00 PM,73.4,71.6,94,29.83,9.0,Calm,Calm,-,N/A,,Overcast,0,2013-09-01 03:00:00
11:16 PM,73.4,71.6,94,29.82,10.0,Calm,Calm,-,N/A,,Mostly Cloudy,0,2013-09-01 03:16:00
11:39 PM,73.4,71.6,94,29.82,9.0,Calm,Calm,-,N/A,,Mostly Cloudy,0,2013-09-01 03:39:00
11:53 PM,73.0,71.1,93,29.79,10.0,Calm,Calm,-,N/A,,Overcast,0,2013-09-01 03:53:00